When you browse on this site, cookies collect data to enhance your experience and personalize the content and advertising you see.
Visit our Privacy Policy to learn more. By continuing to use the site, you agree to this use of cookies and data.

Stündliche Wetter Martos

Heute, 5 August, Mittwoch

Zeit Temperatur Niederschläge Wind Luftdruck Luftfeuchtigkeit
00:00 +25°C° 0 mm 1 m/S 700 mmHg 61%
01:00 +24°C° 0 mm 1 m/S 700 mmHg 64%
02:00 +23°C° 0 mm 1 m/S 700 mmHg 66%
03:00 +23°C° 0 mm 1 m/S 700 mmHg 69%
04:00 +23°C° 0 mm 1 m/S 700 mmHg 69%
05:00 +23°C° 0 mm 1 m/S 700 mmHg 70%
06:00 +23°C° 0 mm 1 m/S 700 mmHg 70%
07:00 +25°C° 0 mm 1 m/S 700 mmHg 61%
08:00 +28°C° 0 mm 1 m/S 701 mmHg 51%
09:00 +30°C° 0 mm 1 m/S 701 mmHg 42%
10:00 +32°C° 0 mm 1 m/S 701 mmHg 36%
11:00 +35°C° 0 mm 2 m/S 701 mmHg 31%
12:00 +37°C° 0 mm 2 m/S 702 mmHg 25%
13:00 +37°C° 0 mm 2 m/S 701 mmHg 23%
14:00 +38°C° 0 mm 2 m/S 701 mmHg 21%
15:00 +39°C° 0 mm 3 m/S 701 mmHg 20%
16:00 +38°C° 0 mm 3 m/S 701 mmHg 20%
17:00 +38°C° 0 mm 3 m/S 700 mmHg 21%
18:00 +37°C° 0 mm 3 m/S 700 mmHg 21%
19:00 +35°C° 0 mm 3 m/S 700 mmHg 26%
20:00 +31°C° 0 mm 2 m/S 700 mmHg 30%
21:00 +28°C° 0 mm 2 m/S 700 mmHg 35%
22:00 +27°C° 0 mm 2 m/S 700 mmHg 38%
23:00 +26°C° 0 mm 2 m/S 700 mmHg 42%

Morgen, 6 August, Donnerstag

Zeit Temperatur Niederschläge Wind Luftdruck Luftfeuchtigkeit
00:00 +25°C° 0 mm 1 m/S 700 mmHg 46%
01:00 +24°C° 0 mm 1 m/S 700 mmHg 49%
02:00 +24°C° 0 mm 1 m/S 700 mmHg 52%
03:00 +23°C° 0 mm 1 m/S 700 mmHg 56%
04:00 +23°C° 0 mm 1 m/S 700 mmHg 57%
05:00 +23°C° 0 mm 1 m/S 700 mmHg 58%
06:00 +23°C° 0 mm 1 m/S 700 mmHg 59%
07:00 +26°C° 0 mm 1 m/S 701 mmHg 50%
08:00 +28°C° 0 mm 1 m/S 702 mmHg 41%
09:00 +31°C° 0 mm 2 m/S 702 mmHg 32%
10:00 +35°C° 0 mm 2 m/S 702 mmHg 27%
11:00 +37°C° 0 mm 2 m/S 703 mmHg 22%
12:00 +39°C° 0 mm 2 m/S 703 mmHg 17%
13:00 +40°C° 0 mm 2 m/S 703 mmHg 15%
14:00 +42°C° 0 mm 3 m/S 702 mmHg 14%
15:00 +43°C° 0 mm 3 m/S 702 mmHg 13%
16:00 +42°C° 0 mm 3 m/S 702 mmHg 13%
17:00 +40°C° 0 mm 3 m/S 702 mmHg 14%
18:00 +40°C° 0 mm 3 m/S 702 mmHg 15%
19:00 +36°C° 0 mm 3 m/S 702 mmHg 21%
20:00 +33°C° 0 mm 3 m/S 702 mmHg 27%
21:00 +28°C° 0 mm 3 m/S 702 mmHg 33%
22:00 +27°C° 0 mm 2 m/S 702 mmHg 38%
23:00 +26°C° 0 mm 2 m/S 702 mmHg 43%

übermorgen, 7 August, Freitag

Zeit Temperatur Niederschläge Wind Luftdruck Luftfeuchtigkeit
00:00 +24°C° 0 mm 2 m/S 702 mmHg 49%
01:00 +24°C° 0.1 mm 1 m/S 702 mmHg 50%
02:00 +23°C° 0.1 mm 1 m/S 702 mmHg 51%
03:00 +23°C° 0.1 mm 1 m/S 702 mmHg 52%
04:00 +23°C° 0 mm 1 m/S 702 mmHg 53%
05:00 +21°C° 0 mm 0 m/S 702 mmHg 54%
06:00 +21°C° 0 mm 0 m/S 702 mmHg 55%
07:00 +23°C° 0 mm 0 m/S 703 mmHg 47%
08:00 +28°C° 0 mm 1 m/S 703 mmHg 39%
09:00 +31°C° 0 mm 1 m/S 704 mmHg 32%
10:00 +33°C° 0 mm 1 m/S 704 mmHg 28%
11:00 +36°C° 0 mm 2 m/S 704 mmHg 24%
12:00 +38°C° 0 mm 2 m/S 705 mmHg 20%
13:00 +39°C° 0 mm 3 m/S 705 mmHg 18%
14:00 +40°C° 0 mm 3 m/S 704 mmHg 17%
15:00 +42°C° 0 mm 4 m/S 704 mmHg 15%
16:00 +41°C° 0 mm 5 m/S 704 mmHg 16%
17:00 +40°C° 0 mm 5 m/S 704 mmHg 17%
18:00 +39°C° 0 mm 5 m/S 704 mmHg 18%
19:00 +36°C° 0 mm 5 m/S 704 mmHg 23%
20:00 +33°C° 0 mm 4 m/S 704 mmHg 29%
21:00 +29°C° 0 mm 4 m/S 704 mmHg 34%
22:00 +28°C° 0 mm 3 m/S 704 mmHg 39%
23:00 +27°C° 0 mm 2 m/S 704 mmHg 45%

8 August, Samstag

Zeit Temperatur Niederschläge Wind Luftdruck Luftfeuchtigkeit
00:00 +25°C° 0 mm 2 m/S 704 mmHg 50%
01:00 +25°C° 0 mm 1 m/S 704 mmHg 54%
02:00 +24°C° 0 mm 1 m/S 703 mmHg 57%
03:00 +23°C° 0 mm 1 m/S 703 mmHg 61%
04:00 +21°C° 0 mm 0 m/S 703 mmHg 62%
05:00 +21°C° 0 mm 0 m/S 703 mmHg 63%
06:00 +21°C° 0 mm 0 m/S 703 mmHg 65%
07:00 +25°C° 0 mm 1 m/S 704 mmHg 55%
08:00 +28°C° 0 mm 1 m/S 704 mmHg 46%
09:00 +30°C° 0 mm 1 m/S 705 mmHg 37%
10:00 +32°C° 0 mm 1 m/S 705 mmHg 32%
11:00 +35°C° 0 mm 2 m/S 705 mmHg 27%
12:00 +37°C° 0 mm 2 m/S 705 mmHg 22%
13:00 +38°C° 0 mm 3 m/S 704 mmHg 19%
14:00 +40°C° 0 mm 4 m/S 704 mmHg 17%
15:00 +41°C° 0 mm 5 m/S 704 mmHg 14%
16:00 +41°C° 0 mm 5 m/S 703 mmHg 14%
17:00 +40°C° 0 mm 5 m/S 703 mmHg 14%
18:00 +39°C° 0 mm 5 m/S 703 mmHg 14%
19:00 +35°C° 0 mm 4 m/S 703 mmHg 17%
20:00 +33°C° 0 mm 3 m/S 703 mmHg 20%
21:00 +29°C° 0 mm 2 m/S 703 mmHg 23%
22:00 +28°C° 0 mm 2 m/S 702 mmHg 27%
23:00 +27°C° 0 mm 2 m/S 702 mmHg 31%

9 August, Sonntag

Zeit Temperatur Niederschläge Wind Luftdruck Luftfeuchtigkeit
00:00 +26°C° 0 mm 2 m/S 702 mmHg 35%
01:00 +25°C° 0 mm 1 m/S 702 mmHg 39%
02:00 +24°C° 0 mm 1 m/S 701 mmHg 43%
03:00 +22°C° 0 mm 1 m/S 701 mmHg 47%
04:00 +20°C° 0 mm 0 m/S 701 mmHg 47%
05:00 +20°C° 0 mm 0 m/S 701 mmHg 48%
06:00 +20°C° 0 mm 0 m/S 701 mmHg 48%
07:00 +23°C° 0 mm 0 m/S 702 mmHg 41%
08:00 +28°C° 0 mm 1 m/S 702 mmHg 33%
09:00 +31°C° 0 mm 1 m/S 703 mmHg 26%
10:00 +34°C° 0 mm 2 m/S 703 mmHg 22%
11:00 +36°C° 0 mm 2 m/S 703 mmHg 17%
12:00 +38°C° 0 mm 3 m/S 703 mmHg 13%
13:00 +40°C° 0 mm 4 m/S 702 mmHg 11%
14:00 +41°C° 0 mm 5 m/S 702 mmHg 10%
15:00 +42°C° 0 mm 5 m/S 702 mmHg 8%
16:00 +41°C° 0 mm 5 m/S 701 mmHg 8%
17:00 +41°C° 0 mm 4 m/S 701 mmHg 9%
18:00 +40°C° 0 mm 4 m/S 701 mmHg 9%
19:00 +36°C° 0 mm 4 m/S 701 mmHg 12%
20:00 +33°C° 0 mm 3 m/S 701 mmHg 15%
21:00 +29°C° 0 mm 3 m/S 701 mmHg 19%
22:00 +28°C° 0 mm 2 m/S 700 mmHg 22%
23:00 +27°C° 0 mm 2 m/S 700 mmHg 26%

10 August, Montag

Zeit Temperatur Niederschläge Wind Luftdruck Luftfeuchtigkeit
00:00 +25°C° 0 mm 1 m/S 700 mmHg 29%
01:00 +25°C° 0 mm 1 m/S 699 mmHg 31%
02:00 +24°C° 0 mm 1 m/S 699 mmHg 33%
03:00 +24°C° 0 mm 1 m/S 699 mmHg 34%
04:00 +22°C° 0 mm 0 m/S 699 mmHg 35%
05:00 +22°C° 0 mm 0 m/S 699 mmHg 36%
06:00 +22°C° 0 mm 0 m/S 699 mmHg 37%
07:00 +24°C° 0 mm 0 m/S 700 mmHg 32%
08:00 +29°C° 0 mm 1 m/S 700 mmHg 28%
09:00 +31°C° 0 mm 1 m/S 700 mmHg 23%
10:00 +34°C° 0 mm 2 m/S 700 mmHg 22%
11:00 +36°C° 0 mm 3 m/S 700 mmHg 20%
12:00 +38°C° 0 mm 3 m/S 700 mmHg 19%
13:00 +38°C° 0 mm 4 m/S 700 mmHg 18%
14:00 +40°C° 0 mm 5 m/S 700 mmHg 18%
15:00 +41°C° 0 mm 5 m/S 700 mmHg 18%
16:00 +40°C° 0.1 mm 5 m/S 699 mmHg 19%
17:00 +39°C° 0.1 mm 5 m/S 699 mmHg 21%
18:00 +37°C° 0.1 mm 4 m/S 699 mmHg 22%
19:00 +35°C° 0 mm 4 m/S 699 mmHg 25%
20:00 +31°C° 0 mm 3 m/S 699 mmHg 29%
21:00 +29°C° 0 mm 3 m/S 699 mmHg 32%
22:00 +27°C° 0.3 mm 3 m/S 699 mmHg 37%
23:00 +26°C° 0.3 mm 2 m/S 700 mmHg 42%
Mehr zeigen